This is the latest recevied weather packets stored in our database for station/object VK4TOM-13. If no packets are shown the sender has not sent any weather packets the latest 1 day(s).
| Time | Temp. | Humidity | Pressure | Rain* | Wind** | Luminosity | Snow |
|---|---|---|---|---|---|---|---|
| 1778043571 | 25° C | 70% | 1014.1 hPa | 0 mm | - | - | - |
| 1778042970 | 25° C | 70% | 1014.1 hPa | 0 mm | - | - | - |
| 1778042369 | 25° C | 70% | 1014.1 hPa | 0 mm | - | - | - |
| 1778041768 | 25.56° C | 70% | 1014.2 hPa | 0 mm | - | - | - |
| 1778041547 | 25.56° C | 70% | 1014.4 hPa | 0 mm | - | - | - |
| 1778041131 | 25.56° C | 70% | 1014.4 hPa | 0 mm | - | - | - |
| 1778040530 | 25.56° C | 70% | 1014.4 hPa | 0 mm | - | - | - |
| 1778039327 | 25° C | 70% | 1014.4 hPa | 0 mm | - | - | - |
| 1778038126 | 26.11° C | 70% | 1014.5 hPa | 0 mm | - | - | - |
| 1778037829 | 26.11° C | 70% | 1014.4 hPa | 0 mm | - | - | - |
| 1778037285 | 27.22° C | 70% | 1014.2 hPa | 0 mm | - | - | - |
| 1778037104 | 27.22° C | 70% | 1014.2 hPa | 0 mm | - | - | - |
| 1778036735 | 27.78° C | 70% | 1014.3 hPa | 0 mm | - | - | - |
| 1778036134 | 27.78° C | 70% | 1014.4 hPa | 0 mm | - | - | - |
| 1778035533 | 27.78° C | 70% | 1014.4 hPa | 0 mm | - | - | - |
| 1778034932 | 28.33° C | 70% | 1014.5 hPa | 0 mm | - | - | - |
| 1778034331 | 28.33° C | 70% | 1014.5 hPa | 0 mm | - | - | - |
| 1778033730 | 29.44° C | 70% | 1014.7 hPa | 0 mm | - | - | - |
| 1778033129 | 29.44° C | 70% | 1014.6 hPa | 0 mm | - | - | - |
| 1778032528 | 29.44° C | 70% | 1014.8 hPa | 0 mm | - | - | - |
* Rain since midnight (hover to see other rain measurements)
** Current wind speed in m/s (hover to see current wind gust speed)